Location: Cahas Mountain Overlook
(37.0833°N, 80.1000°W)
Time: 11:27:51
(UTC-04:00)

Vanguard 1 Rocket - Pass Details

Date: 14 February 2026
Orbit: 653 x 4214 km, 34.3° (Epoch: 15 March)

Event Time Altitude Azimuth Distance (km) Brightness Sun altitude
Rises 18:36:16 0° 280° (W) 6,261 13.2 -8.0°
Reaches altitude 10° 18:39:42 10° 279° (W) 5,618 12.8 -8.7°
Maximum altitude 18:59:00 70° 201° (SSW) 4,095 10.7 -12.5°
Drops below altitude 10° 19:25:02 10° 123° (ESE) 7,196 11.5 -17.6°
Enters shadow 19:27:53 - 122° (ESE) 7,634 11.6 -18.2°
